Pilot information for Libenge Airport

[ general | frequencies | runways | weather | notam | navaids | links ]

Caution: This page displays community-maintained data: information may be missing, incorrect, or out of date. Please confirm with an official source before making travel plans.

General information for Libenge Airport

Airport codes: LIE FZFA
Type: local airport(light traffic)
Scheduled airline service: no
Serves: Libenge, Equateur, Congo (Kinshasa)
Latitude: 3.633000 | 3 37.979994 N | N03 37 58
Longitude: 18.632999 | 18 37.979965 E | E018 37 58
Field elevation: 1,125 ft/343 m MSL

Radio communication frequencies for Libenge Airport

No communications frequencies known for Libenge Airport.

Members can add and update frequencies.

Runways at Libenge Airport

No runway information available for Libenge Airport.

Members can add and update runway information.

Aviation weather for Libenge Airport

Current conditions (METAR) for Libenge Airport

Closest report is Bangui M'Poko International Airport, 46.5 nm (86.1 km) N. Retrieved 2015/09/05 11:00:

FEFF 051100Z VRB02KT 9999 BKN026 33/24 Q1012 NOSIG

Forecast (TAF) for Libenge Airport

Closest forecast is Bangui M'Poko International Airport, 46.5 nm (86.1 km) N. Retrieved 2015/09/05 12:00:

TAF FCBB 051100Z 0512/0618 23004KT 7000 SCT023= TAF FEFF 051100Z 0512/0618 20006KT 9999 BKN023 
      BECMG 0513/0515 BKN030 FEW040CB 
      TEMPO 0516/0518 TSRA 
      BECMG 0520/0522 CAVOK 
      TEMPO 0603/0605 2000 BR BKN003

Notices to Airmen (NOTAM) for Libenge Airport

Please confirm all NOTAMs at the original source! These are for information only, and may be wrong, out of date, or incomplete.

We have no current NOTAMs for Libenge Airport. Please check with an official source to confirm.